Location: Newark
(50.4348°N, 30.5552°E)
Time: 12:53:59
(UTC+00:00)

A-11 Canister half - Visible Passes

Search period start: 28 January 2020 00:00
Search period end: 07 February 2020 00:00
Orbit: 1525 x 1684 km, 47.3° (Epoch: 27 January)

Date Brightness Start Highest point End Pass type
(mag) Time Alt. Az. Time Alt. Az. Time Alt. Az.
28 Jan 9.4 15:16:26 10° SW 15:25:23 55° SSE 15:34:35 10° E visible
28 Jan 9.0 17:20:30 10° W 17:29:52 75° S 17:33:07 47° ESE visible
28 Jan 9.7 19:25:13 10° W 19:31:26 44° WSW 19:31:26 44° WSW visible
29 Jan 9.0 16:58:53 10° W 17:08:14 75° S 17:12:44 37° E visible
29 Jan 9.4 19:03:36 10° W 19:11:02 53° WSW 19:11:02 53° WSW visible
29 Jan 11.1 21:08:46 10° W 21:09:20 12° W 21:09:20 12° W visible
30 Jan 9.0 16:37:17 10° WSW 16:46:37 74° S 16:52:21 28° E visible
30 Jan 9.1 18:41:59 10° W 18:50:39 61° SW 18:50:39 61° SW visible
30 Jan 10.9 20:47:06 10° W 20:48:58 16° W 20:48:58 16° W visible
31 Jan 9.1 16:15:41 10° WSW 16:24:59 74° S 16:31:59 21° E visible
31 Jan 9.0 18:20:22 10° W 18:29:39 64° SSW 18:30:17 62° S visible
31 Jan 10.6 20:25:26 10° W 20:28:36 21° W 20:28:36 21° W visible
01 Feb 9.1 15:54:04 10° WSW 16:03:21 74° S 16:11:39 15° E visible
01 Feb 9.1 17:58:45 10° W 18:08:02 65° SSW 18:09:57 55° SSE visible
01 Feb 10.4 20:03:46 10° W 20:08:15 26° WSW 20:08:15 26° WSW visible
02 Feb 9.2 15:32:28 10° WSW 15:41:44 73° S 15:51:15 10° E visible
02 Feb 9.1 17:37:08 10° W 17:46:25 66° SSW 17:49:38 45° SE visible
02 Feb 10.1 19:42:06 10° W 19:47:56 31° WSW 19:47:56 31° WSW visible
03 Feb 9.2 15:10:52 10° WSW 15:20:07 73° S 15:29:36 10° E visible
03 Feb 9.1 17:15:31 10° W 17:24:47 67° SSW 17:29:21 35° SE visible
03 Feb 9.9 19:20:28 10° W 19:27:40 35° SW 19:27:40 35° SW visible
04 Feb 9.2 16:53:53 10° W 17:03:10 68° SSW 17:09:07 26° ESE visible
04 Feb 9.8 18:58:49 10° W 19:07:14 38° SW 19:07:26 38° SW visible
05 Feb 9.2 16:32:17 10° W 16:41:33 69° SSW 16:48:55 19° ESE visible
05 Feb 9.7 18:37:11 10° W 18:45:39 39° SW 18:47:15 37° SSW visible
05 Feb 11.1 20:45:06 10° WSW 20:45:34 11° WSW 20:45:34 11° WSW visible
06 Feb 9.2 16:10:40 10° W 16:19:55 70° SSW 16:28:48 12° ESE visible
06 Feb 9.8 18:15:32 10° W 18:24:04 40° SW 18:27:08 33° S visible
06 Feb 11.0 20:23:02 10° W 20:25:27 13° WSW 20:25:27 13° WSW visible
